Weather History for KBCE - March, 2013

Change the Weather History Date:

Saturday, March 2, 2013

  Actual Average Record
Temperature  
Mean Temperature 30 °F -  
Max Temperature 46 °F 41 °F 57 °F (1986)
Min Temperature 15 °F 18 °F -4 °F (1962)
Degree Days  
Heating Degree Days 34    
Moisture  
Dew Point 20 °F    
Average Humidity 67    
Maximum Humidity 92    
Minimum Humidity 36    
Precipitation  
Precipitation 0.00 in - - ()
Sea Level Pressure  
Sea Level Pressure 30.34 in    
Wind  
Wind Speed 6 mph (SW)    
Max Wind Speed 16 mph    
Max Gust Speed -    
Visibility 10 miles    
Events      
Averages and records for this station are not official NWS values.
T = Trace of Precipitation, MM = Missing Value Source: NWS Daily Summary

Daily Weather History Graph

Daily Weather History Graph

Search for Another Location

Airport or City:

Trip Planner

Search our weather history database for the weather conditions in past years. The results will help you decide how hot, cold, wet, or windy it might be!

Date:

Astronomy

Mar. 02, 2013 Rise Set
Actual Time 6:58 AM MST 6:23 PM MST
Civil Twilight 6:31 AM MST 6:49 PM MST
Nautical Twilight 6:01 AM MST 7:20 PM MST
Astronomical Twilight 5:31 AM MST 7:50 PM MST
Moon No Moon Rise 9:35 AM MST (3/2)
Length of Visible Light 12h 17m
Length of Day
11h 25m
Waning Gibbous, 73% of the Moon is Illuminated
Mar 2
Waning Gibbous
Mar 4
Last Quarter
Mar 11
New
Mar 19
First Quarter
Mar 27
Full

Hourly Weather History & Observations

Time (MST) Temp. Windchill Dew Point Humidity Pressure Visibility Wind Dir Wind Speed Gust Speed Precip Events Conditions
12:53 AM 21.0 °F 16.2 °F 18.0 °F 88% 30.44 in 10.0 mi WNW 3.5 mph - N/A   Clear
2:53 AM 21.0 °F 16.2 °F 19.0 °F 92% 30.43 in 10.0 mi West 3.5 mph - N/A   Clear
3:53 AM 18.0 °F 11.1 °F 15.1 °F 88% 30.43 in 10.0 mi West 4.6 mph - N/A   Clear
4:53 AM 17.1 °F 7.6 °F 14.0 °F 88% 30.45 in 10.0 mi WNW 6.9 mph - N/A   Clear
5:53 AM 16.0 °F 10.4 °F 12.9 °F 88% 30.46 in 10.0 mi WNW 3.5 mph - N/A   Clear
6:53 AM 15.1 °F 4.2 °F 12.0 °F 88% 30.48 in 10.0 mi West 8.1 mph - N/A   Clear
7:53 AM 19.0 °F 10.0 °F 14.0 °F 81% 30.50 in 10.0 mi West 6.9 mph - N/A   Clear
8:53 AM 26.1 °F 20.5 °F 19.0 °F 75% 30.49 in 10.0 mi West 4.6 mph - N/A   Clear
9:53 AM 36.0 °F - 21.9 °F 57% 30.42 in 10.0 mi Calm Calm - N/A   Clear
10:53 AM 39.0 °F - 23.0 °F 53% 30.39 in 10.0 mi Calm Calm - N/A   Clear
11:53 AM 45.0 °F 41.2 °F 19.0 °F 36% 30.35 in 10.0 mi SE 6.9 mph - N/A   Clear
12:53 PM 46.0 °F 41.4 °F 21.0 °F 37% 30.32 in 10.0 mi SSE 9.2 mph - N/A   Clear
1:53 PM 46.9 °F - 21.9 °F 37% 30.28 in 10.0 mi SSE 11.5 mph - N/A   Clear
2:53 PM 46.9 °F - 21.0 °F 36% 30.26 in 10.0 mi SSE 16.1 mph - N/A   Clear
3:53 PM 46.9 °F - 23.0 °F 39% 30.25 in 10.0 mi SE 15.0 mph - N/A   Clear
4:53 PM 46.0 °F 41.9 °F 23.0 °F 40% 30.25 in 10.0 mi SE 8.1 mph - N/A   Clear
5:53 PM 41.0 °F 38.0 °F 26.1 °F 55% 30.27 in 10.0 mi SSE 4.6 mph - N/A   Clear
6:53 PM 37.0 °F 33.3 °F 24.1 °F 59% 30.29 in 10.0 mi South 4.6 mph - N/A   Clear
7:53 PM 32.0 °F 26.4 °F 25.0 °F 75% 30.28 in 10.0 mi West 5.8 mph - N/A   Clear
8:53 PM 28.0 °F 21.7 °F 23.0 °F 81% 30.26 in 10.0 mi WSW 5.8 mph - N/A   Clear
9:53 PM 28.0 °F 21.7 °F 23.0 °F 81% 30.20 in 10.0 mi SW 5.8 mph - N/A   Clear
10:53 PM 26.1 °F 21.9 °F 21.9 °F 84% 30.17 in 10.0 mi WSW 3.5 mph - N/A   Clear
11:53 PM 27.0 °F 21.6 °F 21.0 °F 78% 30.12 in 10.0 mi West 4.6 mph - N/A   Clear